| time (UTC) | temp F | wind direction | speed MPH | gust MPH | rain 1hr in | rain 24hr in | rain mn in | humidity % | barometer mb |
| 20260508004754 | 55 | 195 | 0.0 | 0.0 | 0.00 | 0.03 | 0.00 | 75 | 1010.5 |
| 20260508004247 | 55 | 195 | 0.0 | 0.0 | 0.00 | 0.03 | 0.00 | 75 | 1010.5 |
| 20260508003739 | 55 | 195 | 0.0 | 0.0 | 0.00 | 0.03 | 0.00 | 75 | 1010.6 |
| 20260508003230 | 55 | 195 | 0.0 | 0.0 | 0.00 | 0.04 | 0.00 | 75 | 1010.5 |
| 20260508002831 | 55 | 195 | 0.0 | 0.0 | 0.00 | 0.04 | 0.00 | 75 | 1010.6 |
| 20260508001728 | 56 | 195 | 0.0 | 0.0 | 0.00 | 0.05 | 0.00 | 73 | 1010.8 |
| 20260508001220 | 56 | 226 | 0.0 | 0.0 | 0.00 | 0.06 | 0.00 | 73 | 1010.8 |
| 20260508000723 | 56 | 225 | 0.0 | 0.0 | 0.00 | 0.06 | 0.00 | 72 | 1010.8 |
| 20260508000226 | 56 | 226 | 0.0 | 0.0 | 0.00 | 0.06 | 0.00 | 72 | 1010.8 |
| 20260507235833 | 56 | 226 | 0.0 | 0.0 | 0.00 | 0.06 | 0.00 | 72 | 1010.9 |
| 20260507235419 | 57 | 226 | 0.0 | 0.0 | 0.00 | 0.06 | 0.00 | 71 | 1011.0 |
| 20260507233724 | 57 | 226 | 0.0 | 0.0 | 0.00 | 0.07 | 0.00 | 72 | 1011.1 |
| 20260507232800 | 57 | 226 | 0.0 | 0.0 | 0.00 | 0.07 | 0.00 | 72 | 1011.1 |
| 20260507231637 | 57 | 226 | 0.0 | 0.0 | 0.00 | 0.08 | 0.00 | 71 | 1011.4 |
| 20260507231138 | 58 | 226 | 0.0 | 0.0 | 0.00 | 0.09 | 0.00 | 71 | 1011.4 |
| 20260507230634 | 58 | 226 | 0.0 | 0.0 | 0.00 | 0.10 | 0.00 | 70 | 1011.5 |
| 20260507230124 | 58 | 226 | 0.0 | 0.0 | 0.00 | 0.11 | 0.00 | 69 | 1011.4 |
| 20260507225621 | 58 | 196 | 0.0 | 0.0 | 0.00 | 0.13 | 0.00 | 69 | 1011.5 |
| 20260507225147 | 58 | 155 | 0.0 | 0.0 | 0.00 | 0.13 | 0.00 | 69 | 1011.5 |
| 20260507224112 | 58 | 155 | 0.0 | 0.0 | 0.00 | 0.14 | 0.00 | 69 | 1011.7 |
| 20260507223603 | 58 | 155 | 0.0 | 0.0 | 0.00 | 0.14 | 0.00 | 68 | 1011.7 |
| 20260507223057 | 58 | 156 | 0.0 | 0.0 | 0.00 | 0.14 | 0.00 | 67 | 1011.7 |
| 20260507222545 | 59 | 156 | 0.0 | 0.0 | 0.00 | 0.14 | 0.00 | 65 | 1011.7 |
| 20260507222130 | 59 | 156 | 0.0 | 0.0 | 0.00 | 0.14 | 0.00 | 64 | 1011.8 |
| 20260507221037 | 59 | 156 | 0.0 | 0.0 | 0.00 | 0.14 | 0.00 | 63 | 1011.9 |
| 20260507220537 | 59 | 156 | 0.0 | 0.0 | 0.00 | 0.14 | 0.00 | 63 | 1011.8 |
| 20260507220039 | 59 | 156 | 0.0 | 0.0 | 0.00 | 0.14 | 0.00 | 63 | 1011.8 |
| 20260507215533 | 59 | 156 | 0.0 | 0.0 | 0.00 | 0.14 | 0.14 | 63 | 1011.8 |
| 20260507215115 | 59 | 156 | 0.0 | 0.0 | 0.00 | 0.14 | 0.14 | 63 | 1011.8 |
| 20260507214020 | 59 | 156 | 0.0 | 0.0 | 0.00 | 0.14 | 0.14 | 62 | 1011.8 |
| 20260507213519 | 59 | 156 | 0.0 | 0.0 | 0.00 | 0.14 | 0.14 | 62 | 1011.8 |
| 20260507213016 | 59 | 156 | 0.0 | 0.0 | 0.00 | 0.14 | 0.14 | 63 | 1011.9 |
| 20260507212512 | 59 | 156 | 0.0 | 0.0 | 0.00 | 0.14 | 0.14 | 62 | 1011.9 |
| 20260507212013 | 59 | 156 | 0.0 | 0.0 | 0.00 | 0.14 | 0.14 | 63 | 1011.9 |
| 20260507211510 | 59 | 156 | 0.0 | 0.0 | 0.00 | 0.14 | 0.14 | 63 | 1011.9 |
| 20260507211009 | 59 | 156 | 0.0 | 0.0 | 0.00 | 0.14 | 0.14 | 63 | 1011.9 |
| 20260507210506 | 60 | 156 | 0.0 | 0.0 | 0.00 | 0.14 | 0.14 | 63 | 1011.9 |
| 20260507210011 | 60 | 156 | 0.0 | 0.0 | 0.00 | 0.14 | 0.14 | 63 | 1011.9 |
| 20260507205455 | 60 | 156 | 0.0 | 0.0 | 0.00 | 0.14 | 0.14 | 61 | 1011.9 |
| 20260507204955 | 60 | 156 | 0.0 | 0.0 | 0.00 | 0.14 | 0.14 | 62 | 1011.9 |
| 20260507204442 | 60 | 156 | 0.0 | 0.0 | 0.00 | 0.14 | 0.14 | 61 | 1012.0 |
| 20260507203934 | 60 | 156 | 0.0 | 0.0 | 0.00 | 0.14 | 0.14 | 61 | 1012.0 |
| 20260507203425 | 61 | 156 | 0.0 | 0.0 | 0.00 | 0.14 | 0.14 | 61 | 1012.0 |
| 20260507203014 | 61 | 156 | 0.0 | 0.0 | 0.00 | 0.14 | 0.14 | 60 | 1012.0 |
| 20260507201925 | 61 | 156 | 0.0 | 0.0 | 0.00 | 0.14 | 0.14 | 60 | 1012.1 |
| 20260507201417 | 62 | 156 | 0.0 | 0.0 | 0.00 | 0.14 | 0.14 | 59 | 1012.0 |
| 20260507200906 | 62 | 156 | 0.0 | 0.0 | 0.00 | 0.14 | 0.14 | 58 | 1012.1 |
| 20260507200402 | 62 | 156 | 0.0 | 0.0 | 0.00 | 0.14 | 0.14 | 57 | 1012.0 |
| 20260507195907 | 62 | 156 | 0.0 | 2.0 | 0.00 | 0.14 | 0.14 | 59 | 1012.0 |
| 20260507195532 | 62 | 156 | 1.0 | 3.0 | 0.00 | 0.14 | 0.14 | 60 | 1012.0 |
| 20260507195116 | 62 | 156 | 1.0 | 3.0 | 0.00 | 0.14 | 0.14 | 59 | 1012.0 |
| 20260507194058 | 63 | 156 | 2.0 | 4.0 | 0.00 | 0.14 | 0.14 | 57 | 1011.9 |
| 20260507192348 | 62 | 156 | 3.0 | 4.0 | 0.00 | 0.14 | 0.14 | 61 | 1011.9 |
| 20260507191919 | 63 | 156 | 3.0 | 4.0 | 0.00 | 0.14 | 0.14 | 61 | 1011.9 |
| 20260507191528 | 63 | 157 | 3.0 | 4.0 | 0.00 | 0.14 | 0.14 | 62 | 1011.8 |
| 20260507185837 | 64 | 174 | 2.0 | 4.0 | 0.00 | 0.14 | 0.14 | 62 | 1011.7 |
| 20260507185337 | 64 | 221 | 2.0 | 4.0 | 0.00 | 0.14 | 0.14 | 61 | 1011.7 |
| 20260507184911 | 65 | 221 | 2.0 | 3.0 | 0.00 | 0.14 | 0.14 | 59 | 1011.7 |
| 20260507183802 | 66 | 221 | 1.0 | 4.0 | 0.00 | 0.14 | 0.14 | 56 | 1011.6 |
| 20260507183342 | 67 | 310 | 1.0 | 3.0 | 0.00 | 0.14 | 0.14 | 50 | 1011.6 |
| 20260507182242 | 68 | 310 | 0.0 | 2.0 | 0.00 | 0.14 | 0.14 | 47 | 1011.7 |
| 20260507181745 | 68 | 310 | 0.0 | 1.0 | 0.00 | 0.14 | 0.14 | 47 | 1011.6 |
| 20260507181236 | 69 | 310 | 0.0 | 2.0 | 0.00 | 0.14 | 0.14 | 47 | 1011.6 |
| 20260507180816 | 69 | 310 | 1.0 | 3.0 | 0.00 | 0.14 | 0.14 | 46 | 1011.6 |
| 20260507175706 | 69 | 310 | 2.0 | 4.0 | 0.00 | 0.14 | 0.14 | 46 | 1011.6 |
| 20260507175156 | 70 | 310 | 2.0 | 4.0 | 0.00 | 0.14 | 0.14 | 46 | 1011.6 |
| 20260507174649 | 70 | 307 | 3.0 | 4.0 | 0.00 | 0.14 | 0.14 | 45 | 1011.6 |
| 20260507174138 | 70 | 308 | 3.0 | 4.0 | 0.00 | 0.14 | 0.14 | 44 | 1011.5 |
| 20260507173718 | 70 | 310 | 3.0 | 5.0 | 0.00 | 0.14 | 0.14 | 44 | 1011.6 |
| 20260507173335 | 71 | 302 | 3.0 | 5.0 | 0.00 | 0.14 | 0.14 | 44 | 1011.6 |
| 20260507172933 | 71 | 308 | 3.0 | 5.0 | 0.00 | 0.14 | 0.14 | 43 | 1011.5 |
| 20260507170616 | 74 | 310 | 4.0 | 6.0 | 0.00 | 0.14 | 0.14 | 48 | 1011.2 |
| 20260507170114 | 75 | 342 | 4.0 | 7.0 | 0.00 | 0.14 | 0.14 | 44 | 1011.2 |
| 20260507165617 | 76 | 333 | 4.0 | 7.0 | 0.00 | 0.14 | 0.14 | 43 | 1011.2 |
| 20260507165112 | 76 | 313 | 4.0 | 6.0 | 0.00 | 0.14 | 0.14 | 42 | 1011.4 |
| 20260507164707 | 77 | 323 | 3.0 | 5.0 | 0.00 | 0.14 | 0.14 | 42 | 1011.4 |
| 20260507163553 | 76 | 316 | 3.0 | 5.0 | 0.00 | 0.14 | 0.14 | 45 | 1011.4 |
| 20260507163046 | 76 | 333 | 4.0 | 8.0 | 0.00 | 0.14 | 0.14 | 47 | 1011.4 |
| 20260507162604 | 75 | 311 | 4.0 | 8.0 | 0.00 | 0.14 | 0.14 | 45 | 1011.2 |
| 20260507161558 | 76 | 344 | 4.0 | 7.0 | 0.00 | 0.14 | 0.14 | 44 | 1011.2 |
| 20260507160602 | 76 | 327 | 5.0 | 8.0 | 0.00 | 0.14 | 0.14 | 47 | 1011.4 |
| 20260507155443 | 77 | 298 | 4.0 | 7.0 | 0.00 | 0.14 | 0.14 | 43 | 1011.4 |
| 20260507154944 | 77 | 333 | 4.0 | 7.0 | 0.00 | 0.14 | 0.14 | 44 | 1011.5 |
| 20260507154439 | 77 | 323 | 3.0 | 7.0 | 0.00 | 0.14 | 0.14 | 43 | 1011.6 |
| 20260507153934 | 77 | 304 | 4.0 | 7.0 | 0.00 | 0.14 | 0.14 | 43 | 1011.6 |
| 20260507153518 | 77 | 346 | 3.0 | 7.0 | 0.00 | 0.14 | 0.14 | 45 | 1011.6 |
| 20260507152503 | 77 | 304 | 3.0 | 7.0 | 0.00 | 0.14 | 0.14 | 42 | 1011.6 |
| 20260507151353 | 77 | 333 | 4.0 | 7.0 | 0.00 | 0.14 | 0.14 | 45 | 1011.6 |
| 20260507150852 | 77 | 338 | 4.0 | 7.0 | 0.00 | 0.14 | 0.14 | 46 | 1011.6 |
| 20260507150352 | 77 | 338 | 4.0 | 7.0 | 0.00 | 0.14 | 0.14 | 46 | 1011.8 |
| 20260507145907 | 77 | 293 | 4.0 | 7.0 | 0.00 | 0.14 | 0.14 | 45 | 1011.8 |
| 20260507145502 | 76 | 342 | 5.0 | 9.0 | 0.00 | 0.14 | 0.14 | 47 | 1011.8 |
| 20260507144329 | 76 | 313 | 3.0 | 11.0 | 0.00 | 0.14 | 0.14 | 45 | 1011.8 |
| 20260507143908 | 76 | 301 | 5.0 | 10.0 | 0.00 | 0.14 | 0.14 | 46 | 1011.9 |
| 20260507142810 | 76 | 324 | 3.0 | 12.0 | 0.00 | 0.14 | 0.14 | 46 | 1012.0 |
| 20260507142310 | 75 | 294 | 1.0 | 9.0 | 0.00 | 0.14 | 0.14 | 45 | 1012.1 |
| 20260507141827 | 75 | 62 | 1.0 | 6.0 | 0.00 | 0.14 | 0.14 | 51 | 1012.2 |
| 20260507141404 | 75 | 92 | 2.0 | 6.0 | 0.00 | 0.14 | 0.14 | 45 | 1012.2 |
| 20260507141004 | 75 | 19 | 3.0 | 5.0 | 0.00 | 0.14 | 0.14 | 46 | 1012.4 |
| 20260507135339 | 74 | 340 | 7.0 | 13.0 | 0.00 | 0.14 | 0.14 | 52 | 1012.5 |
| 20260507134222 | 76 | 350 | 4.0 | 8.0 | 0.00 | 0.14 | 0.14 | 48 | 1012.7 |
| 20260507133716 | 75 | 320 | 3.0 | 7.0 | 0.00 | 0.14 | 0.14 | 49 | 1012.8 |
| 20260507133218 | 75 | 15 | 3.0 | 6.0 | 0.00 | 0.14 | 0.14 | 50 | 1012.9 |
| 20260507132716 | 75 | 345 | 4.0 | 7.0 | 0.00 | 0.14 | 0.14 | 53 | 1012.9 |
| 20260507132208 | 75 | 346 | 4.0 | 7.0 | 0.00 | 0.14 | 0.14 | 53 | 1013.0 |
| 20260507131711 | 74 | 316 | 4.0 | 8.0 | 0.00 | 0.14 | 0.14 | 51 | 1013.1 |
| 20260507131205 | 75 | 302 | 3.0 | 8.0 | 0.00 | 0.14 | 0.14 | 47 | 1013.1 |
| 20260507130656 | 75 | 286 | 4.0 | 7.0 | 0.00 | 0.14 | 0.14 | 50 | 1013.1 |
| 20260507130146 | 75 | 324 | 4.0 | 7.0 | 0.00 | 0.14 | 0.14 | 53 | 1013.1 |
| 20260507125639 | 75 | 313 | 3.0 | 7.0 | 0.00 | 0.14 | 0.14 | 54 | 1013.3 |
| 20260507125140 | 75 | 299 | 2.0 | 5.0 | 0.00 | 0.14 | 0.14 | 51 | 1013.2 |
| 20260507124634 | 74 | 297 | 3.0 | 6.0 | 0.00 | 0.14 | 0.14 | 51 | 1013.3 |
| 20260507124134 | 74 | 296 | 3.0 | 7.0 | 0.00 | 0.14 | 0.14 | 52 | 1013.3 |
| 20260507123636 | 74 | 296 | 3.0 | 7.0 | 0.00 | 0.14 | 0.14 | 52 | 1013.3 |
| 20260507123132 | 73 | 333 | 3.0 | 7.0 | 0.00 | 0.14 | 0.14 | 53 | 1013.5 |
| 20260507122634 | 73 | 306 | 1.0 | 7.0 | 0.00 | 0.14 | 0.14 | 53 | 1013.4 |
| 20260507122242 | 73 | 257 | 0.0 | 0.0 | 0.00 | 0.14 | 0.14 | 54 | 1013.3 |
| 20260507121128 | 73 | 331 | 0.0 | 0.0 | 0.00 | 0.14 | 0.14 | 54 | 1013.3 |
| 20260507120629 | 72 | 331 | 0.0 | 0.0 | 0.00 | 0.14 | 0.14 | 56 | 1013.3 |
| 20260507120129 | 72 | 279 | 0.0 | 0.0 | 0.00 | 0.14 | 0.14 | 55 | 1013.4 |
| 20260507115628 | 72 | 351 | 0.0 | 0.0 | 0.00 | 0.14 | 0.14 | 54 | 1013.4 |
| 20260507115240 | 71 | 13 | 0.0 | 0.0 | 0.00 | 0.14 | 0.14 | 57 | 1013.4 |
| 20260507114128 | 71 | 313 | 0.0 | 0.0 | 0.00 | 0.14 | 0.14 | 59 | 1013.4 |
| 20260507113613 | 71 | 317 | 0.0 | 0.0 | 0.00 | 0.14 | 0.14 | 57 | 1013.5 |
| 20260507113114 | 71 | 305 | 0.0 | 0.0 | 0.00 | 0.14 | 0.14 | 57 | 1013.5 |
| 20260507112614 | 71 | 348 | 0.0 | 0.0 | 0.00 | 0.14 | 0.14 | 60 | 1013.5 |
| 20260507112114 | 71 | 321 | 0.0 | 0.0 | 0.00 | 0.14 | 0.14 | 58 | 1013.5 |
| 20260507111615 | 71 | 321 | 0.0 | 0.0 | 0.00 | 0.14 | 0.14 | 54 | 1013.4 |
| 20260507111113 | 72 | 325 | 0.0 | 0.0 | 0.00 | 0.14 | 0.14 | 57 | 1013.5 |
| 20260507110609 | 73 | 329 | 0.0 | 0.0 | 0.00 | 0.14 | 0.14 | 57 | 1013.6 |
| 20260507105604 | 72 | 303 | 0.0 | 0.0 | 0.00 | 0.14 | 0.14 | 60 | 1013.5 |
| 20260507105101 | 72 | 295 | 0.0 | 0.0 | 0.00 | 0.14 | 0.14 | 56 | 1013.6 |
| 20260507104551 | 72 | 323 | 0.0 | 0.0 | 0.00 | 0.14 | 0.14 | 58 | 1013.6 |
| 20260507104052 | 73 | 292 | 0.0 | 0.0 | 0.00 | 0.14 | 0.14 | 57 | 1013.7 |
| 20260507103551 | 72 | 342 | 0.0 | 0.0 | 0.00 | 0.14 | 0.14 | 60 | 1013.7 |
| 20260507103048 | 72 | 338 | 0.0 | 0.0 | 0.00 | 0.14 | 0.14 | 62 | 1013.8 |
| 20260507102550 | 72 | 330 | 0.0 | 0.0 | 0.00 | 0.14 | 0.14 | 59 | 1013.8 |
| 20260507102048 | 72 | 292 | 0.0 | 0.0 | 0.00 | 0.14 | 0.14 | 55 | 1013.9 |
| 20260507101545 | 72 | 292 | 0.0 | 0.0 | 0.00 | 0.14 | 0.14 | 59 | 1013.9 |
| 20260507101040 | 72 | 282 | 0.0 | 0.0 | 0.00 | 0.14 | 0.14 | 61 | 1014.0 |
| 20260507100530 | 72 | 282 | 0.0 | 0.0 | 0.00 | 0.14 | 0.14 | 60 | 1014.1 |
| 20260507100020 | 71 | 244 | 0.0 | 0.0 | 0.00 | 0.14 | 0.14 | 62 | 1014.1 |
| 20260507095519 | 71 | 290 | 0.0 | 0.0 | 0.00 | 0.14 | 0.14 | 62 | 1014.0 |
| 20260507095016 | 71 | 273 | 0.0 | 0.0 | 0.00 | 0.14 | 0.14 | 64 | 1014.0 |
| 20260507094515 | 71 | 292 | 0.0 | 0.0 | 0.00 | 0.14 | 0.14 | 65 | 1014.0 |
| 20260507094014 | 70 | 292 | 0.0 | 0.0 | 0.00 | 0.14 | 0.14 | 66 | 1014.0 |
| 20260507093518 | 70 | 287 | 0.0 | 0.0 | 0.00 | 0.14 | 0.14 | 66 | 1014.0 |
| 20260507093011 | 69 | 287 | 0.0 | 0.0 | 0.00 | 0.14 | 0.14 | 67 | 1014.0 |
| 20260507092513 | 69 | 286 | 0.0 | 0.0 | 0.00 | 0.14 | 0.14 | 69 | 1014.0 |
| 20260507092017 | 69 | 286 | 0.0 | 0.0 | 0.00 | 0.14 | 0.14 | 67 | 1014.1 |
| 20260507091623 | 69 | 277 | 0.0 | 0.0 | 0.00 | 0.14 | 0.14 | 69 | 1014.0 |
| 20260507090456 | 68 | 277 | 0.0 | 0.0 | 0.00 | 0.14 | 0.14 | 70 | 1014.0 |
| 20260507085951 | 67 | 280 | 0.0 | 0.0 | 0.00 | 0.14 | 0.14 | 72 | 1014.1 |
| 20260507085506 | 67 | 308 | 0.0 | 0.0 | 0.00 | 0.14 | 0.14 | 73 | 1014.2 |
| 20260507085121 | 66 | 316 | 1.0 | 4.0 | 0.00 | 0.14 | 0.14 | 75 | 1014.3 |
| 20260507084739 | 66 | 316 | 2.0 | 4.0 | 0.00 | 0.14 | 0.14 | 74 | 1014.3 |
| 20260507082528 | 65 | 316 | 4.0 | 6.0 | 0.00 | 0.14 | 0.14 | 75 | 1014.5 |
| 20260507081428 | 66 | 301 | 3.0 | 9.0 | 0.00 | 0.14 | 0.14 | 75 | 1014.4 |
| 20260507080931 | 66 | 340 | 1.0 | 9.0 | 0.00 | 0.14 | 0.14 | 76 | 1014.3 |
| 20260507080416 | 66 | 344 | 0.0 | 0.0 | 0.00 | 0.14 | 0.14 | 79 | 1014.3 |
| 20260507075913 | 66 | 331 | 0.0 | 0.0 | 0.00 | 0.14 | 0.14 | 79 | 1014.2 |
| 20260507075415 | 65 | 11 | 0.0 | 0.0 | 0.00 | 0.14 | 0.14 | 79 | 1014.2 |
| 20260507074905 | 65 | 11 | 0.0 | 0.0 | 0.00 | 0.14 | 0.14 | 78 | 1014.3 |
| 20260507074407 | 64 | 11 | 0.0 | 0.0 | 0.00 | 0.14 | 0.14 | 80 | 1014.3 |
| 20260507073904 | 64 | 11 | 0.0 | 0.0 | 0.00 | 0.14 | 0.14 | 80 | 1014.3 |
| 20260507073406 | 63 | 11 | 0.0 | 0.0 | 0.00 | 0.14 | 0.14 | 84 | 1014.3 |
| 20260507072903 | 62 | 11 | 0.0 | 0.0 | 0.00 | 0.14 | 0.14 | 82 | 1014.3 |
| 20260507072354 | 62 | 10 | 0.0 | 0.0 | 0.00 | 0.14 | 0.14 | 83 | 1014.4 |
| 20260507071856 | 62 | 10 | 0.0 | 0.0 | 0.00 | 0.14 | 0.14 | 86 | 1014.4 |
| 20260507071352 | 61 | 9 | 0.0 | 0.0 | 0.00 | 0.14 | 0.14 | 85 | 1014.4 |
| 20260507070843 | 61 | 9 | 0.0 | 0.0 | 0.00 | 0.14 | 0.14 | 85 | 1014.4 |
| 20260507070347 | 61 | 9 | 0.0 | 0.0 | 0.00 | 0.14 | 0.14 | 87 | 1014.4 |
| 20260507065840 | 60 | 11 | 0.0 | 0.0 | 0.00 | 0.14 | 0.14 | 86 | 1014.3 |
| 20260507065341 | 60 | 11 | 0.0 | 0.0 | 0.00 | 0.14 | 0.14 | 87 | 1014.3 |
| 20260507064842 | 60 | 11 | 0.0 | 0.0 | 0.00 | 0.14 | 0.14 | 88 | 1014.3 |
| 20260507064339 | 60 | 11 | 0.0 | 0.0 | 0.00 | 0.14 | 0.14 | 88 | 1014.3 |
| 20260507063838 | 60 | 11 | 0.0 | 0.0 | 0.00 | 0.14 | 0.14 | 89 | 1014.3 |
| 20260507063325 | 59 | 11 | 0.0 | 0.0 | 0.00 | 0.14 | 0.14 | 89 | 1014.3 |
| 20260507062822 | 59 | 11 | 0.0 | 0.0 | 0.00 | 0.14 | 0.14 | 89 | 1014.2 |
| 20260507062317 | 59 | 11 | 0.0 | 0.0 | 0.00 | 0.14 | 0.14 | 90 | 1014.1 |
| 20260507061817 | 59 | 11 | 0.0 | 0.0 | 0.00 | 0.14 | 0.14 | 90 | 1014.1 |
| 20260507061318 | 59 | 11 | 0.0 | 0.0 | 0.00 | 0.14 | 0.14 | 90 | 1014.2 |
| 20260507060815 | 58 | 11 | 0.0 | 0.0 | 0.00 | 0.14 | 0.14 | 90 | 1014.0 |
| 20260507060425 | 58 | 11 | 0.0 | 0.0 | 0.00 | 0.14 | 0.14 | 90 | 1014.0 |
| 20260507054735 | 58 | 11 | 0.0 | 0.0 | 0.00 | 0.14 | 0.14 | 92 | 1013.9 |
| 20260507054226 | 58 | 11 | 0.0 | 0.0 | 0.00 | 0.14 | 0.14 | 93 | 1013.9 |
| 20260507053758 | 57 | 11 | 0.0 | 0.0 | 0.00 | 0.14 | 0.14 | 94 | 1013.9 |
| 20260507052703 | 56 | 63 | 0.0 | 0.0 | 0.00 | 0.14 | 0.14 | 94 | 1013.7 |
| 20260507052150 | 56 | 63 | 0.0 | 0.0 | 0.00 | 0.14 | 0.14 | 94 | 1013.7 |
| 20260507051645 | 55 | 122 | 0.0 | 0.0 | 0.00 | 0.14 | 0.14 | 93 | 1013.7 |
| 20260507051133 | 55 | 123 | 0.0 | 0.0 | 0.00 | 0.14 | 0.14 | 93 | 1013.7 |
| 20260507050628 | 55 | 138 | 0.0 | 0.0 | 0.00 | 0.14 | 0.14 | 94 | 1013.8 |
| 20260507050118 | 55 | 138 | 0.0 | 0.0 | 0.00 | 0.14 | 0.14 | 94 | 1013.8 |
| 20260507045716 | 55 | 138 | 0.0 | 0.0 | 0.00 | 0.14 | 0.14 | 94 | 1013.8 |
| 20260507044553 | 54 | 138 | 0.0 | 0.0 | 0.00 | 0.14 | 0.14 | 93 | 1013.7 |
| 20260507044142 | 54 | 138 | 0.0 | 0.0 | 0.00 | 0.14 | 0.14 | 93 | 1013.6 |
| 20260507043758 | 54 | 139 | 0.0 | 0.0 | 0.00 | 0.14 | 0.14 | 93 | 1013.6 |
| 20260507042126 | 55 | 139 | 0.0 | 0.0 | 0.00 | 0.14 | 0.14 | 93 | 1013.5 |
| 20260507041019 | 55 | 139 | 0.0 | 0.0 | 0.00 | 0.14 | 0.14 | 93 | 1013.5 |
| 20260507040516 | 55 | 138 | 0.0 | 0.0 | 0.00 | 0.14 | 0.14 | 93 | 1013.5 |
| 20260507040015 | 55 | 138 | 0.0 | 0.0 | 0.00 | 0.14 | 0.14 | 93 | 1013.4 |
| 20260507035524 | 55 | 138 | 0.0 | 0.0 | 0.00 | 0.14 | 0.14 | 93 | 1013.5 |
| 20260507035107 | 55 | 138 | 0.0 | 0.0 | 0.00 | 0.14 | 0.14 | 93 | 1013.4 |
| 20260507034004 | 55 | 138 | 0.0 | 0.0 | 0.01 | 0.14 | 0.14 | 92 | 1013.4 |
| 20260507033503 | 55 | 138 | 0.0 | 0.0 | 0.02 | 0.14 | 0.14 | 92 | 1013.5 |
| 20260507033056 | 55 | 138 | 0.0 | 0.0 | 0.02 | 0.14 | 0.14 | 92 | 1013.5 |
| 20260507031959 | 55 | 138 | 0.0 | 0.0 | 0.02 | 0.14 | 0.14 | 93 | 1013.4 |
| 20260507031458 | 55 | 138 | 0.0 | 0.0 | 0.02 | 0.14 | 0.14 | 93 | 1013.4 |
| 20260507030957 | 55 | 138 | 0.0 | 0.0 | 0.02 | 0.14 | 0.14 | 93 | 1013.5 |
| 20260507030439 | 55 | 138 | 0.0 | 0.0 | 0.02 | 0.14 | 0.14 | 92 | 1013.5 |
| 20260507030033 | 55 | 139 | 0.0 | 0.0 | 0.02 | 0.14 | 0.14 | 92 | 1013.4 |
| 20260507024933 | 55 | 138 | 0.0 | 0.0 | 0.02 | 0.14 | 0.14 | 92 | 1013.4 |
| 20260507024430 | 55 | 139 | 0.0 | 0.0 | 0.02 | 0.13 | 0.13 | 91 | 1013.4 |
| 20260507023927 | 55 | 139 | 0.0 | 0.0 | 0.02 | 0.13 | 0.13 | 91 | 1013.4 |
| 20260507023430 | 56 | 139 | 0.0 | 0.0 | 0.01 | 0.13 | 0.13 | 91 | 1013.4 |
| 20260507022925 | 56 | 139 | 0.0 | 0.0 | 0.01 | 0.13 | 0.13 | 91 | 1013.4 |
| 20260507022424 | 56 | 138 | 0.0 | 0.0 | 0.01 | 0.13 | 0.13 | 91 | 1013.4 |
| 20260507021924 | 56 | 139 | 0.0 | 0.0 | 0.00 | 0.12 | 0.12 | 91 | 1013.3 |
| 20260507021510 | 56 | 139 | 0.0 | 0.0 | 0.00 | 0.12 | 0.12 | 91 | 1013.4 |
| 20260507020407 | 56 | 138 | 0.0 | 0.0 | 0.01 | 0.12 | 0.12 | 91 | 1013.5 |
| 20260507015858 | 56 | 139 | 0.0 | 0.0 | 0.01 | 0.12 | 0.12 | 91 | 1013.5 |
| 20260507015349 | 56 | 139 | 0.0 | 0.0 | 0.01 | 0.12 | 0.12 | 91 | 1013.4 |
| 20260507014849 | 56 | 126 | 0.0 | 0.0 | 0.01 | 0.12 | 0.12 | 91 | 1013.4 |
| 20260507014347 | 56 | 126 | 0.0 | 0.0 | 0.01 | 0.12 | 0.12 | 91 | 1013.4 |
| 20260507013846 | 56 | 126 | 0.0 | 0.0 | 0.01 | 0.12 | 0.12 | 91 | 1013.4 |
| 20260507013343 | 56 | 108 | 0.0 | 0.0 | 0.02 | 0.12 | 0.12 | 91 | 1013.4 |
| 20260507012849 | 56 | 89 | 0.0 | 0.0 | 0.02 | 0.12 | 0.12 | 92 | 1013.4 |
| 20260507012343 | 56 | 55 | 0.0 | 0.0 | 0.02 | 0.12 | 0.12 | 92 | 1013.3 |
| 20260507011843 | 56 | 19 | 0.0 | 0.0 | 0.02 | 0.12 | 0.12 | 92 | 1013.3 |
| 20260507011339 | 56 | 19 | 0.0 | 0.0 | 0.03 | 0.12 | 0.12 | 92 | 1013.3 |
| 20260507010839 | 56 | 19 | 0.0 | 0.0 | 0.03 | 0.11 | 0.11 | 92 | 1013.4 |
| 20260507010340 | 56 | 19 | 0.0 | 0.0 | 0.03 | 0.11 | 0.11 | 92 | 1013.4 |
| 20260507005836 | 56 | 19 | 0.0 | 0.0 | 0.03 | 0.11 | 0.11 | 92 | 1013.4 |
| 20260507005336 | 56 | 19 | 0.0 | 0.0 | 0.03 | 0.11 | 0.11 | 92 | 1013.5 |